Satellite: NOAA-15
Catalog number: 25338
Epoch time: 06340.94240088
Element set: 0779
Inclination: 098.5231 deg
RA of node: 338.1394 deg
Eccentricity: 0.0009955
Arg of perigee: 227.6086 deg
Mean anomaly: 132.4234 deg
Mean motion: 14.24615297 rev/day
Decay rate: 9.8e-07 rev/day^2
Epoch rev: 44531
Checksum: 321
Satellite: RESURS
Catalog number: 25394
Epoch time: 06340.70052281
Element set: 0529
Inclination: 098.4712 deg
RA of node: 037.5706 deg
Eccentricity: 0.0002276
Arg of perigee: 047.0844 deg
Mean anomaly: 313.0523 deg
Mean motion: 14.24119968 rev/day
Decay rate: 1.5e-07 rev/day^2
Epoch rev: 43695
Checksum: 285
Satellite: FENGYUN1
Catalog number: 25730
Epoch time: 06341.54196582
Element set: 898
Inclination: 098.6403 deg
RA of node: 327.6595 deg
Eccentricity: 0.0014764
Arg of perigee: 010.3215 deg
Mean anomaly: 349.8274 deg
Mean motion: 14.11817623 rev/day
Decay rate: -1.73e-06 rev/day^2
Epoch rev: 39047
Checksum: 313
Satellite: OKEAN-0
Catalog number: 25860
Epoch time: 06340.63964287
Element set: 0922
Inclination: 097.7302 deg
RA of node: 346.9170 deg
Eccentricity: 0.0000634
Arg of perigee: 041.1887 deg
Mean anomaly: 318.9364 deg
Mean motion: 14.73411247 rev/day
Decay rate: 1.38e-06 rev/day^2
Epoch rev: 39714
Checksum: 306
Satellite: NOAA-16
Catalog number: 26536
Epoch time: 06340.85895678
Element set: 0171
Inclination: 099.0920 deg
RA of node: 309.7148 deg
Eccentricity: 0.0010598
Arg of perigee: 358.5159 deg
Mean anomaly: 001.5987 deg
Mean motion: 14.12386994 rev/day
Decay rate: -1.36e-06 rev/day^2
Epoch rev: 31995
Checksum: 352
Satellite: NOAA-17
Catalog number: 27453
Epoch time: 06340.83436397
Element set: 0191
Inclination: 098.6066 deg
RA of node: 049.5416 deg
Eccentricity: 0.0010932
Arg of perigee: 294.7857 deg
Mean anomaly: 065.2178 deg
Mean motion: 14.23832810 rev/day
Decay rate: -4.5e-07 rev/day^2
Epoch rev: 23134
Checksum: 312
Satellite: NOAA-18
Catalog number: 28654
Epoch time: 06340.80636906
Element set: 0748
Inclination: 098.8092 deg
RA of node: 280.5320 deg
Eccentricity: 0.0015055
Arg of perigee: 092.4240 deg
Mean anomaly: 267.8643 deg
Mean motion: 14.11016907 rev/day
Decay rate: 1.58e-06 rev/day^2
Epoch rev: 07972
Checksum: 312
/EX
SB KEPS @ AMSAT $ORB06341.M
Orbital Elements 06341.MISC
HR AMSAT ORBITAL ELEMENTS FOR MANNED AND MISCELLANEOUS SATELLITES
FROM WA5QGD FORT WORTH,TX December 7, 2006
Send SUBSCRIBE KEPS/UNSUBSCRIBE KEPS to majordomo at amsat.org only
BID: ORB06341.M
TO ALL RADIO AMATEURS BT
Satellite: HUBBLE
Catalog number: 20580
Epoch time: 06340.41294697
Element set: 0764
Inclination: 028.4684 deg
RA of node: 007.0901 deg
Eccentricity: 0.0003946
Arg of perigee: 209.9094 deg
Mean anomaly: 150.1270 deg
Mean motion: 15.00147221 rev/day
Decay rate: 5.72e-06 rev/day^2
Epoch rev: 71098
Checksum: 278
Satellite: UARS
Catalog number: 21701
Epoch time: 06340.72678109
Element set: 0964
Inclination: 056.9768 deg
RA of node: 067.7407 deg
Eccentricity: 0.0099407
Arg of perigee: 177.6323 deg
Mean anomaly: 182.5225 deg
Mean motion: 15.45837349 rev/day
Decay rate: 7.633e-05 rev/day^2
Epoch rev: 83596
Checksum: 345
Satellite: PO-34
Catalog number: 25520
Epoch time: 06340.34270884
Element set: 626
Inclination: 028.4610 deg
RA of node: 319.3172 deg
Eccentricity: 0.0004955
Arg of perigee: 312.7490 deg
Mean anomaly: 047.2686 deg
Mean motion: 15.16864661 rev/day
Decay rate: 7.77e-06 rev/day^2
Epoch rev: 44821
Checksum: 307
Satellite: ISS
Catalog number: 25544
Epoch time: 06341.60845907
Element set: 214
Inclination: 051.6352 deg
RA of node: 013.3720 deg
Eccentricity: 0.0023824
Arg of perigee: 308.1438 deg
Mean anomaly: 191.9096 deg
Mean motion: 15.75492771 rev/day
Decay rate: 2.2742e-04 rev/day^2
Epoch rev: 46052
Checksum: 288
Satellite: OO-38
Catalog number: 26063
Epoch time: 06340.83728858
Element set: 0785
Inclination: 100.2083 deg
RA of node: 303.0975 deg
Eccentricity: 0.0036925
Arg of perigee: 341.7201 deg
Mean anomaly: 018.2649 deg
Mean motion: 14.35788092 rev/day
Decay rate: 2.6e-07 rev/day^2
Epoch rev: 35945
Checksum: 316
Satellite: NO-45
Catalog number: 26932
Epoch time: 06340.96535895
Element set: 0485
Inclination: 067.0519 deg
RA of node: 282.3680 deg
Eccentricity: 0.0003765
Arg of perigee: 244.9086 deg
Mean anomaly: 115.1616 deg
Mean motion: 14.29542606 rev/day
Decay rate: -3.4e-07 rev/day^2
Epoch rev: 27066
Checksum: 322
Satellite: UWE-1
Catalog number: 28892
Epoch time: 06341.72777150
Element set: 622
Inclination: 098.1474 deg
RA of node: 236.9565 deg
Eccentricity: 0.0017497
Arg of perigee: 353.3354 deg
Mean anomaly: 006.7606 deg
Mean motion: 14.59433429 rev/day
Decay rate: 1.06e-06 rev/day^2
Epoch rev: 5928
Checksum: 323
Satellite: CO-58
Catalog number: 28895
Epoch time: 06340.75307572
Element set: 603
Inclination: 098.1512 deg
RA of node: 236.1403 deg
Eccentricity: 0.0018157
Arg of perigee: 356.5309 deg
Mean anomaly: 003.5758 deg
Mean motion: 14.59482769 rev/day
Decay rate: 9.1e-07 rev/day^2
Epoch rev: 5902
Checksum: 321
Satellite: NCUBE2
Catalog number: 28897
Epoch time: 06340.23204297
Element set: 0155
Inclination: 098.1473 deg
RA of node: 235.6000 deg
Eccentricity: 0.0017629
Arg of perigee: 359.8381 deg
Mean anomaly: 000.2812 deg
Mean motion: 14.59641011 rev/day
Decay rate: 2.37e-06 rev/day^2
Epoch rev: 05122
Checksum: 275
/EX
More information about the Keps
mailing list